Regional Weather Roundup
Issued by NWS Little Rock, AR

Home | Current Version | Previous Version | Graphics & Text | Print | Product List | Glossary On
Versions: 1 2 3 4 5 6 7 8 9 10 11 12 13 14 15 16 17 18 19 20 21 22 23 24 25 26 27 28 29 30 31 32 33 34 35 36 37 38 39 40 41 42 43 44 45 46 47 48 49 50
000
ASUS44 KLZK 210505
RWRLZK

WEATHER ROUNDUP FOR ARKANSAS
NATIONAL WEATHER SERVICE LITTLE ROCK AR
1100 PM CST SAT DEC 20 2014

NOTE: "FAIR" INDICATES FEW OR NO CLOUDS BELOW 12,000 FEET WITH NO
SIGNIFICANT WEATHER AND/OR OBSTRUCTIONS TO VISIBILITY.

ARZ001-003-010-029-210600-
NORTHWEST ARKANSAS

CITY           SKY/WX    TMP DP  RH WIND       PRES   REMARKS
FAYETTEVILLE   CLOUDY    40  38  93 CALM      30.19F
FORT SMITH     CLOUDY    45  40  82 E3        30.22R
HARRISON       CLOUDY    41  35  79 CALM      30.20S
BENTONVILLE    CLOUDY    41  36  81 S5        30.18F
ROGERS         CLOUDY    41  36  82 SE6       30.18F
SILOAM SPGS    CLOUDY    43  34  70 S5        30.19F
HIGHFILL       CLOUDY    42  37  82 S5        30.17F
$$

ARZ004-005-016-210600-
NORTH CENTRAL ARKANSAS

CITY           SKY/WX    TMP DP  RH WIND       PRES   REMARKS
BATESVILLE     PTCLDY    36  34  93 CALM      30.25F
FLIPPIN        CLOUDY    39  36  87 CALM      30.22S
MTN HOME       MOCLDY    39  37  92 SE5       30.21F
$$

ARZ040-041-210600-
WEST CENTRAL ARKANSAS

CITY           SKY/WX    TMP DP  RH WIND       PRES   REMARKS
MENA           CLOUDY    46  45  93 CALM      30.21R
MOUNT IDA      CLOUDY    45  41  86 SE5       30.19S
$$

ARZ009-017-025-026-028-210600-
NORTHEAST ARKANSAS

CITY           SKY/WX    TMP DP  RH WIND       PRES   REMARKS
CORNING        HAZE      41  36  81 SE8       30.28S VSB 1
JONESBORO      PTCLDY    35  33  92 NE5       30.26F WCI  31
NEWPORT        CLOUDY    40  38  93 NE5       30.27F
WALNUT RIDGE   CLOUDY    41  36  81 E3        30.25F
BLYTHEVILLE    CLEAR     33  31  92 NE5       30.27F WCI  29
$$

ARZ022-023-033-042-044-210600-
CENTRAL ARKANSAS

CITY           SKY/WX    TMP DP  RH WIND       PRES   REMARKS
LITTLE ROCK    MOCLDY    39  34  82 CALM      30.25F
N LITTLE ROCK  MOCLDY    37  36  96 E6        30.25F
JACKSONVILLE   CLEAR     34  33  96 CALM      30.25
SEARCY         PTCLDY    35  34  96 NE3       30.27S
HOT SPRINGS    CLEAR     40  36  86 E5        30.23S
RUSSELLVILLE   CLOUDY    45  38  76 E3        30.23R
CLINTON        CLOUDY    39  37  93 CALM      30.26S FOG
$$

ARZ036-210600-
EAST ARKANSAS

CITY           SKY/WX    TMP DP  RH WIND       PRES   REMARKS
WEST MEMPHIS   CLOUDY    40  34  79 NE6       30.25S
$$

ARZ050-053-066-070-073-210600-
SOUTHWEST ARKANSAS

CITY           SKY/WX    TMP DP  RH WIND       PRES   REMARKS
ARKADELPHIA    FAIR      37  37 100 CALM      30.25S FOG
CAMDEN         CLEAR     37  36  93 CALM      30.24R
TEXARKANA      CLOUDY    45  42  89 E3        30.22S
EL DORADO      CLEAR     40  38  93 CALM      30.23R
DE QUEEN       CLOUDY    47  44  90 CALM      30.20S
$$

ARZ056-057-069-210600-
SOUTHEAST ARKANSAS

CITY           SKY/WX    TMP DP  RH WIND       PRES   REMARKS
PINE BLUFF     CLEAR     38  34  85 CALM      30.25S
STUTTGART        N/A     37  34  87 NE7       30.25F
MONTICELLO     CLEAR     39  35  86 NE5       30.23S

$$




USA.gov is the U.S. government's official web portal to all federal, state and local government web resources and services.